Stephen Cunningham

Scout - Middlesbrough
14 Okt 2027
Donnerstag
Verarbeitung

Persönlichkeit

Anpassungsfähigkeit (8) Ehrgeiz (8) Kontroverse (9) Loyalität (18) Druck (20) Professionalität (8) Fairness (11) Temperament (5)

Profil

Trainerstil Demokratisch
Lizenz Kontinentale Pro
Entschlossenheit 11
Menschenführung 7
Motivation 9
Disziplin 9
Arbeitszufriedenheit
100%
Ermüdung
0%
Rolle Scout
Gehalt 86.6K p/W
Vertrag 14.03.2029

Leistung

Verhalten Gut
Trainingseffektivität
45%
Spielerentwicklung
55%
Verletzungsprävention
60%
Taktische Umsetzung
60%

Letzte Ereignisse

Nahm an einer Scouting-Besprechung teil 7T her
Nahm an einer Scouting-Besprechung teil 14T her
Nahm an einer Scouting-Besprechung teil 21T her
Nahm an einer Scouting-Besprechung teil 28T her
Nahm an einer Scouting-Besprechung teil 35T her
Nahm an einer Scouting-Besprechung teil 42T her
Nahm an einer Scouting-Besprechung teil 49T her
Nahm an einer Scouting-Besprechung teil 56T her

Aktuell beobachtet

120
Spieler Verein Status Fähigkeit Vertrauen Beobachtet Zuletzt beobachtet Letzte Stimme
Sascha Britschgi Padova Aktiv 125 / 129 40% 3 22.06.2027 -
Josh King Chelsea Aktiv 139 / 145 40% 2 22.06.2027 -
Joel McGregor Swindon Town Aktiv 89 / 95 40% 2 22.06.2027 -
Tom Atcheson Blackburn Rovers Bericht bereit 109 / 116 76% 1 03.06.2027 -
Ibrahim Maza Bayer Leverkusen Aktiv 143 / 151 40% 4 31.05.2027 -
Leandro Martins Benfica Aktiv 88 / 101 40% 3 30.05.2027 -
Ali Ahmed Norwich City Aktiv 122 / 128 40% 4 29.05.2027 -
Giacomo Raspadori Atalanta Aktiv 145 / 144 40% 3 29.05.2027 -
David Turnbull Cardiff City Aktiv 120 / 114 40% 1 29.05.2027 -
Christos Mouzakitis Hull City Aktiv 137 / 137 40% 3 27.05.2027 -
Matías Gómez Granada Aktiv 112 / 122 40% 1 27.05.2027 -
Mats Wieffer Brighton Aktiv 156 / 154 40% 7 26.05.2027 -
Othmane Maamma Watford Aktiv 132 / 126 40% 3 26.05.2027 -
Hlompho Lorch Ajax Cape Town Aktiv 107 / 98 40% 1 24.05.2027 -
Ethan Galbraith Swansea City Aktiv 128 / 127 40% 4 23.05.2027 -
Davide Bartesaghi AC Milan Aktiv 126 / 132 40% 3 23.05.2027 -
Dango Ouattara Brentford Aktiv 152 / 140 40% 3 23.05.2027 -
Daniel Kelly Oxford United Aktiv 117 / 117 40% 1 23.05.2027 -
Ronald Swansea City Aktiv 124 / 129 40% 2 22.05.2027 -
Nicolas Jackson Aston Villa Aktiv 147 / 147 40% 4 21.05.2027 -
Xavier Amaechi Plymouth Argyle Aktiv 114 / 112 40% 1 21.05.2027 -
Jack Rudoni Coventry City Aktiv 140 / 137 40% 2 19.05.2027 -
Kevin Fulham Aktiv 149 / 154 40% 1 19.05.2027 -
Amine Adli Bournemouth Aktiv 141 / 149 40% 3 18.05.2027 -
Finn Azaz Southampton Aktiv 129 / 130 40% 3 18.05.2027 -
Keagan Tau Ajax Cape Town Aktiv 86 / 95 40% 3 17.05.2027 -
Dylan Lawlor Cardiff City Aktiv 117 / 122 40% 4 16.05.2027 -
Juan Giménez Celta Aktiv 116 / 123 40% 1 16.05.2027 -
Georginio Rutter Brighton Aktiv 149 / 150 40% 2 07.05.2027 -
Derry Murkin Derby County Aktiv 127 / 121 40% 1 07.05.2027 -
Caleb Yirenkyi Coventry City Aktiv 129 / 145 40% 1 04.05.2027 -
Zaïd BafdilI Sporting CP Aktiv 89 / 98 40% 1 04.05.2027 -
Kazunari Kita Real Sociedad Aktiv 99 / 107 40% 1 04.05.2027 -
Mduduzi Shabalala Kaizer Chiefs Aktiv 121 / 122 40% 3 30.04.2027 -
Ollie Tanner Cardiff City Aktiv 116 / 111 40% 2 30.04.2027 -
Rodrigo Gomes Wolverhampton Aktiv 138 / 145 40% 1 30.04.2027 -
Williams Manyama SuperSport United Aktiv 122 / 122 40% 4 29.04.2027 -
Jack McGlynn Stoke City Aktiv 129 / 127 40% 1 29.04.2027 -
Kwame Poku Queens Park Rangers Aktiv 119 / 119 40% 1 27.04.2027 -
Tshepang Moremi Orlando Pirates Aktiv 119 / 116 40% 1 27.04.2027 -
Mandla Erasmus SuperSport United Aktiv 114 / 121 40% 2 26.04.2027 -
Louie Barry Sheffield Wednesday Aktiv 130 / 124 40% 1 26.04.2027 -
Amadou Onana Aston Villa Aktiv 156 / 157 40% 3 24.04.2027 -
Oswin Appollis Orlando Pirates Aktiv 127 / 114 40% 2 22.04.2027 -
Borja Sainz Fiorentina Aktiv 152 / 149 40% 2 21.04.2027 -
Reiss Nelson Aston Villa Aktiv 146 / 145 40% 1 21.04.2027 -
Adam Wharton Crystal Palace Aktiv 153 / 152 40% 5 20.04.2027 -
Zane Albarus Cambridge United Aktiv 99 / 95 40% 2 20.04.2027 -
Mikkel Damsgaard Brentford Aktiv 146 / 142 40% 3 19.04.2027 -
Ernie Weaver AFC Wimbledon Aktiv 104 / 116 40% 2 15.04.2027 -
Martim Cunha Porto Aktiv 98 / 109 40% 1 15.04.2027 -
Riley Owen Trento Aktiv 107 / 108 40% 1 15.04.2027 -
Daniel Kyerewaa Reading Aktiv 108 / 116 40% 2 14.04.2027 -
Stanley Mills Oxford United Aktiv 123 / 125 40% 1 14.04.2027 -
Matvey Kislyak CSKA Moscow Aktiv 138 / 146 40% 1 14.04.2027 -
Jack Diamond Stockport County Aktiv 112 / 120 40% 1 12.04.2027 -
Ilyas Ansah Hull City Aktiv 129 / 137 40% 1 12.04.2027 -
Tom Fellows Southampton Aktiv 140 / 135 40% 5 09.04.2027 -
Siyanda Ndlovu Bloemfontein Celtic Aktiv 112 / 117 40% 2 09.04.2027 -
Jofre Torrents Ajax Aktiv 122 / 130 40% 1 07.04.2027 -
Boubacar Kamara Aston Villa Aktiv 168 / 161 40% 1 04.04.2027 -
Manor Solomon West Ham United Aktiv 133 / 135 40% 1 03.04.2027 -
Christ Inao Oulaï Fiorentina Aktiv 134 / 142 40% 2 01.04.2027 -
Yeremy Pino Crystal Palace Aktiv 149 / 154 40% 2 26.03.2027 -
Percy Jali Free State Stars Aktiv 104 / 104 40% 1 25.03.2027 -
Luiz Henrique West Ham United Aktiv 138 / 145 40% 1 24.03.2027 -
Óscar Mingueza Crystal Palace Aktiv 158 / 149 40% 3 22.03.2027 -
Adrien Truffert Bournemouth Aktiv 146 / 155 40% 4 22.03.2027 -
Ryan Sessegnon Fulham Aktiv 153 / 143 40% 2 18.03.2027 -
Scott Twine Bristol City Aktiv 127 / 126 40% 2 18.03.2027 -
Keagan Phiri Platinum Stars Aktiv 90 / 103 40% 2 17.03.2027 -
Rivaldo Grobler Free State Stars Aktiv 98 / 99 40% 2 17.03.2027 -
Finn Jeltsch VfB Stuttgart Aktiv 128 / 142 40% 1 17.03.2027 -
James Dornelly Peterborough United Aktiv 104 / 114 40% 1 14.03.2027 -
Derrick Fordjour Medeama Aktiv 89 / 88 40% 2 12.03.2027 -
Florentino Luís Ipswich Town Aktiv 141 / 141 40% 1 10.03.2027 -
Carlos Vicente Birmingham Verloren 145 / 144 40% 1 10.03.2027 -
Assane Diao Lazio Aktiv 150 / 151 40% 1 08.03.2027 -
Mfundo Vilakazi Kaizer Chiefs Aktiv 108 / 120 40% 1 02.03.2027 -
Jan Bürger Gillingham Aktiv 117 / 120 40% 1 01.03.2027 -
Jack Hinshelwood Brighton Aktiv 140 / 146 40% 1 01.03.2027 -
Bosun Lawal Stoke City Aktiv 133 / 120 40% 1 31.12.2026 -
André Wolverhampton Aktiv 148 / 149 40% 1 28.12.2026 -
Noah Sadiki Sunderland Aktiv 147 / 146 40% 3 26.12.2026 -
Nicolás Fernández Mercau Shakhtar Aktiv 146 / 138 40% 2 26.12.2026 -
Ethan Ampadu Leeds United Aktiv 142 / 146 40% 1 26.12.2026 -
Anel Ahmedhodžić Burnley Aktiv 131 / 133 40% 1 25.12.2026 -
Elliot Anderson Manchester City Aktiv 146 / 159 40% 3 24.12.2026 -
Imrân Louza Watford Aktiv 123 / 126 40% 1 24.12.2026 -
Jake O'Brien Everton Aktiv 143 / 148 40% 1 23.12.2026 -
Nathan Collins Brentford Aktiv 144 / 146 40% 1 23.12.2026 -
Soungoutou Magassa West Ham United Aktiv 140 / 132 40% 2 21.12.2026 -
Loïc Williams Colorado Rapids Aktiv 121 / 132 40% 1 15.12.2026 -
Habib Diarra Sunderland Aktiv 131 / 142 40% 3 09.12.2026 -
Teden Mengi Luton Town Aktiv 122 / 117 40% 1 09.12.2026 -
Bradley Tau SuperSport United Aktiv 126 / 130 40% 3 08.12.2026 -
Aaron Hickey Brentford Aktiv 136 / 148 40% 4 05.12.2026 -
James Garner Everton Aktiv 151 / 157 40% 2 03.12.2026 -
Jacques Ekomié Wrexham Aktiv 132 / 132 40% 1 03.12.2026 -
Yehor Yarmoliuk Brentford Aktiv 141 / 145 40% 1 02.12.2026 -
Bobby Thomas Coventry City Aktiv 130 / 138 40% 1 30.11.2026 -
Christian Krasnodar Aktiv 135 / 127 40% 1 30.11.2026 -
Welington Southampton Aktiv 125 / 136 40% 2 29.11.2026 -
Jarrad Branthwaite Everton Aktiv 159 / 145 40% 2 28.11.2026 -
Lewis Gibson Preston Aktiv 129 / 118 40% 1 28.11.2026 -
Juan Manuel Sanabria Real Salt Lake Aktiv 130 / 131 40% 2 26.11.2026 -
Alhassan Yusuf New England Revolution Aktiv 123 / 115 40% 1 25.11.2026 -
Quinten Timber Crystal Palace Aktiv 155 / 147 40% 3 23.11.2026 -
Rico Lewis Manchester City Aktiv 154 / 156 40% 2 23.11.2026 -
Facundo Mura Inter Miami CF Aktiv 138 / 121 40% 2 20.11.2026 -
Callum Doyle Wrexham Aktiv 129 / 130 40% 2 19.11.2026 -
Lukas Engel Real Salt Lake Aktiv 136 / 117 40% 3 14.11.2026 -
Juanlu Bournemouth Aktiv 147 / 148 40% 1 13.11.2026 -
Malick Thiaw West Ham United Aktiv 154 / 159 40% 1 12.11.2026 -
Bryan Ramírez FC Cincinnati Aktiv 126 / 129 40% 1 12.11.2026 -
Toby Collyer West Bromwich Albion Aktiv 121 / 132 40% 1 06.11.2026 -
Kimito Nono Sanfrecce Hiroshima Aktiv 125 / 124 40% 1 20.10.2026 -
Shea Charles Southampton Aktiv 137 / 142 40% 1 18.10.2026 -
David Brekalo Orlando City Aktiv 140 / 117 40% 1 12.10.2026 -
James Sands New York City Aktiv 118 / 126 40% 1 08.10.2026 -